Tracking 21998 objects as of 1-Dec-2020
HD Live streaming from Space Station
objects crossing your sky now

OPS 7898 (P/L 4)

Track OPS 7898 (P/L 4) now!
10-day predictions
OPS 7898 (P/L 4) is classified as:


NORAD ID: 5682
Int'l Code: 1971-110E
Perigee: 984.2 km
Apogee: 997.5 km
Inclination: 70.0 °
Period: 104.8 minutes
Semi major axis: 7361 km
RCS: Unknown
Launch date: December 14, 1971
Source: United States (US)
Launch site: AIR FORCE WESTERN TEST RANGE (AFWTR)
aabbcc
Your satellite tracking list
Your tracking list is empty




NASA's NSSDC Master Catalog

Two Line Element Set (TLE):
1  5682U 71110E   20336.37851391 -.00000027 +00000-0 +24523-4 0  9992
2  5682 069.9900 221.0378 0009031 206.4666 153.5968 13.74423960067078
Source of the keplerian elements: McCants